K9UO Weather Reports


time (UTC)temp
F
wind
direction
speed
knots
gust
knots
rain 1hr
in
rain 24hr
in
rain mn
in
humidity
%
barometer
mb
20260505014546 67 360 4.3 7.0 0.00 0.00 0.00 56 1002.5
20260505013052 67 206 3.5 7.0 0.00 0.00 0.00 56 1002.5
20260505011543 67 202 3.5 7.0 0.00 0.00 0.00 56 1002.4
20260505010044 68 213 4.3 8.7 0.00 0.00 0.00 54 1002.4
20260505004549 68 225 5.2 8.7 0.00 0.00 0.00 54 1002.3
20260505003043 68 189 5.2 8.7 0.00 0.00 0.00 55 1002.1
20260505001543 69 360 6.1 9.6 0.00 0.00 0.00 55 1002.0
20260505000057 69 200 7.0 13.9 0.00 0.00 0.00 55 1002.1
20260504234540 69 203 6.1 11.3 0.00 0.00 0.00 55 1002.3
20260504233040 69 194 6.1 11.3 0.00 0.00 0.00 55 1002.2
20260504231536 69 187 6.1 13.0 0.00 0.00 0.00 56 1002.8
20260504230038 69 205 5.2 13.0 0.00 0.00 0.00 57 1003.2
20260504224534 70 214 7.8 12.2 0.00 0.00 0.00 53 1003.4
20260504223033 70 205 7.8 13.9 0.00 0.00 0.00 53 1003.4
20260504221540 70 213 7.8 18.2 0.00 0.00 0.00 53 1003.6
20260504220032 72 211 8.7 20.0 0.00 0.00 0.00 49 1003.6
20260504214534 73 201 10.4 18.2 0.00 0.02 0.00 46 1003.5
20260504213032 74 227 11.3 17.4 0.00 0.02 0.00 42 1003.0
20260504211528 74 219 9.6 15.6 0.00 0.02 0.00 43 1003.0
20260504210025 73 219 13.0 22.6 0.00 0.02 0.00 44 1003.4
20260504204525 73 205 8.7 13.9 0.00 0.03 0.00 47 1003.5
20260504203025 72 222 12.2 22.6 0.00 0.03 0.00 48 1003.8
20260504201522 72 231 10.4 22.6 0.00 0.03 0.00 49 1003.8
20260504200021 73 245 13.9 22.6 0.00 0.03 0.00 48 1004.2
20260504194519 73 234 13.9 27.8 0.00 0.03 0.00 47 1004.2
20260504193018 73 235 14.8 21.7 0.00 0.03 0.00 48 1004.4
20260504191517 73 216 12.2 25.2 0.00 0.03 0.00 49 1004.4
20260504190016 73 360 13.9 22.6 0.00 0.03 0.00 49 1004.6
20260504184515 72 223 11.3 18.2 0.00 0.03 0.00 50 1004.4
20260504183011 72 210 9.6 18.2 0.00 0.03 0.00 52 1004.6
20260504181509 72 360 8.7 18.2 0.00 0.03 0.00 52 1004.7
20260504180010 72 254 8.7 17.4 0.00 0.03 0.00 51 1004.7
20260504174507 71 360 8.7 19.1 0.00 0.03 0.00 52 1004.8
20260504173005 72 360 9.6 15.6 0.00 0.03 0.00 51 1004.8
20260504171503 71 190 11.3 17.4 0.00 0.03 0.00 52 1004.9
20260504081537 51 204 5.2 8.7 0.00 0.03 0.00 51 1008.3
20260504050012 51 209 3.5 7.8 0.00 0.03 0.00 48 1010.1
20260504044508 52 204 4.3 7.8 0.00 0.03 0.00 51 1010.2
20260504043005 52 206 6.1 11.3 0.00 0.03 0.00 51 1010.3
20260504041502 52 194 3.5 7.0 0.00 0.03 0.00 47 1010.4
20260504034558 52 187 3.5 6.1 0.00 0.03 0.03 43 1010.7
20260504033052 51 178 2.6 5.2 0.00 0.03 0.03 35 1010.9
20260504031549 50 194 1.7 5.2 0.00 0.03 0.03 27 1011.0
20260504030042 50 165 0.9 3.5 0.00 0.03 0.03 25 1011.2
20260504024542 50 157 2.6 5.2 0.00 0.03 0.03 27 1011.4
20260504023033 51 158 2.6 5.2 0.00 0.03 0.03 29 1011.5
20260504021529 50 155 2.6 6.1 0.00 0.03 0.03 28 1011.6
20260504020025 50 157 3.5 6.1 0.00 0.03 0.03 19 1011.6